Time,TemperatureF,DewpointF,PressureIn,WindDirection,WindDirectionDegrees,WindSpeedMPH,WindSpeedGustMPH,Humidity,HourlyPrecipIn,Conditions,Clouds,dailyrainin,SoftwareType,DateUTC
2013-05-23 00:05:00,53.7,52.0,25.00,ENE,58,0.0,-999.0,93,-99.99,,,0.31,weatherlink.com 1.10,2013-05-23 04:05:00,
2013-05-23 01:20:00,53.8,52.0,25.00,ENE,58,0.0,-999.0,93,-99.99,,,0.00,weatherlink.com 1.10,2013-05-23 05:20:00,
2013-05-23 01:35:00,53.8,52.0,25.00,ENE,57,0.0,-999.0,93,-99.99,,,0.00,weatherlink.com 1.10,2013-05-23 05:35:00,
2013-05-23 01:50:00,53.8,52.0,25.00,ENE,58,0.0,-999.0,93,-99.99,,,0.00,weatherlink.com 1.10,2013-05-23 05:50:00,
2013-05-23 02:05:00,53.7,52.0,25.00,ENE,57,0.0,-999.0,94,-99.99,,,0.00,weatherlink.com 1.10,2013-05-23 06:05:00,
2013-05-23 02:20:00,53.7,52.0,25.00,ENE,58,0.0,-999.0,94,-99.99,,,0.00,weatherlink.com 1.10,2013-05-23 06:20:00,
2013-05-23 02:35:00,53.7,52.0,25.00,ENE,58,0.0,-999.0,94,-99.99,,,0.00,weatherlink.com 1.10,2013-05-23 06:35:00,
2013-05-23 02:50:00,53.8,52.0,25.00,ENE,57,0.0,-999.0,94,-99.99,,,0.00,weatherlink.com 1.10,2013-05-23 06:50:00,
2013-05-23 03:05:00,53.8,52.0,25.00,ENE,57,0.0,-999.0,94,-99.99,,,0.00,weatherlink.com 1.10,2013-05-23 07:05:00,
2013-05-23 03:20:00,53.8,52.0,25.00,ENE,58,0.0,-999.0,94,-99.99,,,0.00,weatherlink.com 1.10,2013-05-23 07:20:00,
2013-05-23 03:35:00,53.7,52.0,25.00,ENE,58,0.0,-999.0,94,-99.99,,,0.00,weatherlink.com 1.10,2013-05-23 07:35:00,
2013-05-23 03:50:00,53.8,52.0,25.00,ENE,58,0.0,-999.0,94,-99.99,,,0.00,weatherlink.com 1.10,2013-05-23 07:50:00,
2013-05-23 04:05:00,53.8,52.0,25.00,ENE,57,0.0,-999.0,94,-99.99,,,0.00,weatherlink.com 1.10,2013-05-23 08:05:00,
2013-05-23 04:20:00,53.9,52.0,25.00,ENE,57,0.0,-999.0,94,-99.99,,,0.01,weatherlink.com 1.10,2013-05-23 08:20:00,
2013-05-23 04:35:00,53.9,52.0,25.00,ENE,58,0.0,-999.0,94,-99.99,,,0.01,weatherlink.com 1.10,2013-05-23 08:35:00,
2013-05-23 04:50:00,53.9,52.0,25.00,ENE,58,0.0,-999.0,94,-99.99,,,0.01,weatherlink.com 1.10,2013-05-23 08:50:00,
2013-05-23 05:04:00,53.9,52.0,25.00,ENE,58,0.0,-999.0,94,-99.99,,,0.01,weatherlink.com 1.10,2013-05-23 09:04:00,
2013-05-23 05:20:00,54.0,52.0,25.00,ENE,57,0.0,-999.0,94,-99.99,,,0.01,weatherlink.com 1.10,2013-05-23 09:20:00,
2013-05-23 05:35:00,54.2,53.0,25.00,ENE,58,0.0,-999.0,94,-99.99,,,0.01,weatherlink.com 1.10,2013-05-23 09:35:00,
2013-05-23 05:50:00,54.2,53.0,25.00,ENE,58,0.0,-999.0,94,-99.99,,,0.01,weatherlink.com 1.10,2013-05-23 09:50:00,
2013-05-23 06:05:00,54.4,53.0,25.00,ENE,58,0.0,-999.0,94,-99.99,,,0.01,weatherlink.com 1.10,2013-05-23 10:05:00,
2013-05-23 06:20:00,54.5,53.0,25.00,ENE,57,0.0,-999.0,94,-99.99,,,0.01,weatherlink.com 1.10,2013-05-23 10:20:00,
2013-05-23 06:35:00,54.6,53.0,25.00,ENE,57,0.0,-999.0,94,-99.99,,,0.02,weatherlink.com 1.10,2013-05-23 10:35:00,
2013-05-23 06:50:00,54.8,53.0,25.00,ENE,58,0.0,-999.0,94,-99.99,,,0.02,weatherlink.com 1.10,2013-05-23 10:50:00,
2013-05-23 07:05:00,54.8,53.0,25.00,ENE,58,0.0,-999.0,94,-99.99,,,0.02,weatherlink.com 1.10,2013-05-23 11:05:00,
2013-05-23 07:20:00,55.1,54.0,25.00,ENE,58,0.0,-999.0,95,-99.99,,,0.02,weatherlink.com 1.10,2013-05-23 11:20:00,
2013-05-23 07:35:00,55.4,54.0,25.00,ENE,58,0.0,-999.0,95,-99.99,,,0.02,weatherlink.com 1.10,2013-05-23 11:35:00,
2013-05-23 07:50:00,55.8,54.0,25.00,ENE,57,0.0,-999.0,95,-99.99,,,0.02,weatherlink.com 1.10,2013-05-23 11:50:00,
2013-05-23 08:05:00,56.1,55.0,25.00,ENE,58,0.0,-999.0,95,-99.99,,,0.02,weatherlink.com 1.10,2013-05-23 12:05:00,
2013-05-23 08:20:00,56.4,55.0,25.00,ENE,57,0.0,-999.0,95,-99.99,,,0.02,weatherlink.com 1.10,2013-05-23 12:20:00,
2013-05-23 08:35:00,56.8,55.0,25.00,ENE,58,0.0,-999.0,95,-99.99,,,0.02,weatherlink.com 1.10,2013-05-23 12:35:00,
2013-05-23 08:50:00,56.9,56.0,25.00,ENE,58,0.0,-999.0,95,-99.99,,,0.02,weatherlink.com 1.10,2013-05-23 12:50:00,
2013-05-23 09:04:00,57.5,56.0,25.00,ENE,58,0.0,-999.0,95,-99.99,,,0.02,weatherlink.com 1.10,2013-05-23 13:04:00,
2013-05-23 09:20:00,57.8,56.0,25.00,ENE,57,0.0,-999.0,95,-99.99,,,0.02,weatherlink.com 1.10,2013-05-23 13:20:00,
2013-05-23 09:35:00,58.0,57.0,25.00,ENE,57,0.0,-999.0,95,-99.99,,,0.02,weatherlink.com 1.10,2013-05-23 13:35:00,
2013-05-23 09:50:00,58.7,57.0,25.00,ENE,57,0.0,-999.0,95,-99.99,,,0.02,weatherlink.com 1.10,2013-05-23 13:50:00,
2013-05-23 10:05:00,59.0,58.0,25.00,ENE,57,0.0,-999.0,95,-99.99,,,0.02,weatherlink.com 1.10,2013-05-23 14:05:00,
2013-05-23 10:20:00,59.0,58.0,25.00,ENE,57,0.0,-999.0,95,-99.99,,,0.02,weatherlink.com 1.10,2013-05-23 14:20:00,
2013-05-23 10:35:00,59.6,58.0,25.00,NE,56,0.0,-999.0,95,-99.99,,,0.02,weatherlink.com 1.10,2013-05-23 14:35:00,
2013-05-23 10:50:00,61.2,60.0,25.00,NE,56,0.0,-999.0,95,-99.99,,,0.02,weatherlink.com 1.10,2013-05-23 14:50:00,
2013-05-23 11:05:00,62.4,61.0,25.00,NE,56,0.0,-999.0,96,-99.99,,,0.02,weatherlink.com 1.10,2013-05-23 15:05:00,
2013-05-23 11:20:00,64.0,63.0,25.00,NE,56,0.0,-999.0,95,-99.99,,,0.02,weatherlink.com 1.10,2013-05-23 15:20:00,
2013-05-23 11:35:00,64.6,63.0,25.00,NNW,327,0.0,-999.0,95,-99.99,,,0.02,weatherlink.com 1.10,2013-05-23 15:35:00,
2013-05-23 11:50:00,65.6,65.0,25.00,NNW,327,0.0,-999.0,96,-99.99,,,0.02,weatherlink.com 1.10,2013-05-23 15:50:00,
2013-05-23 12:05:00,66.8,65.0,25.00,NNW,333,0.0,-999.0,95,-99.99,,,0.02,weatherlink.com 1.10,2013-05-23 16:05:00,
2013-05-23 12:19:00,68.5,67.0,25.00,SE,140,0.0,-999.0,96,-99.99,,,0.02,weatherlink.com 1.10,2013-05-23 16:19:00,
2013-05-23 12:34:00,69.6,68.0,25.00,SE,140,0.0,-999.0,95,-99.99,,,0.02,weatherlink.com 1.10,2013-05-23 16:34:00,
2013-05-23 12:49:00,70.6,69.0,25.00,SE,137,0.0,-999.0,94,-99.99,,,0.02,weatherlink.com 1.10,2013-05-23 16:49:00,
2013-05-23 13:05:00,70.7,69.0,25.00,SSW,200,0.0,-999.0,93,-99.99,,,0.02,weatherlink.com 1.10,2013-05-23 17:05:00,
2013-05-23 13:20:00,71.3,70.0,25.00,SSW,205,0.0,-999.0,94,-99.99,,,0.02,weatherlink.com 1.10,2013-05-23 17:20:00,
2013-05-23 13:35:00,72.7,70.0,25.00,West,273,0.0,-999.0,91,-99.99,,,0.02,weatherlink.com 1.10,2013-05-23 17:35:00,
2013-05-23 13:50:00,73.1,69.0,25.00,SSE,152,0.0,-999.0,87,-99.99,,,0.02,weatherlink.com 1.10,2013-05-23 17:50:00,
2013-05-23 14:05:00,73.1,68.0,25.00,ENE,69,1.0,-999.0,85,-99.99,,,0.03,weatherlink.com 1.10,2013-05-23 18:05:00,
2013-05-23 14:20:00,73.6,69.0,25.00,NW,305,0.0,-999.0,85,-99.99,,,0.03,weatherlink.com 1.10,2013-05-23 18:20:00,
2013-05-23 14:35:00,74.1,68.0,25.00,SW,233,0.0,-999.0,82,-99.99,,,0.03,weatherlink.com 1.10,2013-05-23 18:35:00,
2013-05-23 14:50:00,73.7,68.0,25.00,West,264,0.0,-999.0,83,-99.99,,,0.03,weatherlink.com 1.10,2013-05-23 18:50:00,
2013-05-23 15:05:00,73.2,68.0,25.00,NNW,340,0.0,-999.0,83,-99.99,,,0.03,weatherlink.com 1.10,2013-05-23 19:05:00,
2013-05-23 15:20:00,73.1,67.0,25.00,NNW,338,0.0,-999.0,82,-99.99,,,0.03,weatherlink.com 1.10,2013-05-23 19:20:00,
2013-05-23 15:35:00,73.3,68.0,25.00,NW,304,0.0,-999.0,82,-99.99,,,0.03,weatherlink.com 1.10,2013-05-23 19:35:00,
2013-05-23 15:50:00,73.0,67.0,25.00,SSW,192,0.0,-999.0,82,-99.99,,,0.03,weatherlink.com 1.10,2013-05-23 19:50:00,
2013-05-23 16:05:00,73.0,67.0,25.00,SSW,206,0.0,-999.0,82,-99.99,,,0.03,weatherlink.com 1.10,2013-05-23 20:05:00,
2013-05-23 16:20:00,72.7,67.0,25.00,SE,140,0.0,-999.0,83,-99.99,,,0.03,weatherlink.com 1.10,2013-05-23 20:20:00,
2013-05-23 16:34:00,72.3,67.0,25.00,SW,228,0.0,-999.0,84,-99.99,,,0.03,weatherlink.com 1.10,2013-05-23 20:34:00,
2013-05-23 16:49:00,72.1,67.0,25.00,South,191,0.0,-999.0,85,-99.99,,,0.03,weatherlink.com 1.10,2013-05-23 20:49:00,
2013-05-23 17:04:00,71.8,67.0,25.00,NNW,336,0.0,-999.0,85,-99.99,,,0.03,weatherlink.com 1.10,2013-05-23 21:04:00,
2013-05-23 17:19:00,71.7,67.0,25.00,ENE,67,1.0,-999.0,84,-99.99,,,0.03,weatherlink.com 1.10,2013-05-23 21:19:00,
2013-05-23 17:35:00,71.7,66.0,25.00,ENE,61,0.0,-999.0,83,-99.99,,,0.03,weatherlink.com 1.10,2013-05-23 21:35:00,
2013-05-23 17:50:00,71.9,67.0,25.00,East,91,0.0,-999.0,83,-99.99,,,0.03,weatherlink.com 1.10,2013-05-23 21:50:00,
2013-05-23 18:05:00,71.4,66.0,25.00,NW,313,1.0,-999.0,84,-99.99,,,0.03,weatherlink.com 1.10,2013-05-23 22:05:00,
2013-05-23 18:20:00,71.1,66.0,25.00,NW,321,2.0,-999.0,84,-99.99,,,0.03,weatherlink.com 1.10,2013-05-23 22:20:00,
2013-05-23 18:35:00,71.1,66.0,25.00,ENE,69,1.0,-999.0,84,-99.99,,,0.03,weatherlink.com 1.10,2013-05-23 22:35:00,
2013-05-23 18:50:00,71.0,66.0,25.00,NNW,348,1.0,-999.0,84,-99.99,,,0.03,weatherlink.com 1.10,2013-05-23 22:50:00,
2013-05-23 19:05:00,70.8,66.0,25.00,SE,136,0.0,-999.0,84,-99.99,,,0.03,weatherlink.com 1.10,2013-05-23 23:05:00,
2013-05-23 19:20:00,70.3,65.0,25.00,SW,235,0.0,-999.0,84,-99.99,,,0.03,weatherlink.com 1.10,2013-05-23 23:20:00,
2013-05-23 19:35:00,69.9,65.0,25.00,ESE,108,0.0,-999.0,85,-99.99,,,0.03,weatherlink.com 1.10,2013-05-23 23:35:00,
2013-05-23 19:50:00,69.5,65.0,25.00,East,82,0.0,-999.0,85,-99.99,,,0.03,weatherlink.com 1.10,2013-05-23 23:50:00,
2013-05-23 20:05:00,69.5,65.0,25.00,North,350,0.0,-999.0,84,-99.99,,,0.03,weatherlink.com 1.10,2013-05-24 00:05:00,
2013-05-23 20:20:00,69.4,65.0,25.00,NE,54,0.0,-999.0,85,-99.99,,,0.03,weatherlink.com 1.10,2013-05-24 00:20:00,
2013-05-23 20:35:00,69.0,64.0,25.00,ENE,60,0.0,-999.0,85,-99.99,,,0.03,weatherlink.com 1.10,2013-05-24 00:35:00,
2013-05-23 20:50:00,68.8,65.0,25.00,NNW,329,0.0,-999.0,86,-99.99,,,0.03,weatherlink.com 1.10,2013-05-24 00:50:00,
2013-05-23 21:04:00,68.7,64.0,25.00,South,180,0.0,-999.0,86,-99.99,,,0.03,weatherlink.com 1.10,2013-05-24 01:04:00,
2013-05-23 21:20:00,68.5,64.0,25.00,ENE,61,4.0,-999.0,86,-99.99,,,0.03,weatherlink.com 1.10,2013-05-24 01:20:00,
2013-05-23 21:35:00,68.1,64.0,25.00,ENE,74,0.0,-999.0,86,-99.99,,,0.03,weatherlink.com 1.10,2013-05-24 01:35:00,
2013-05-23 21:50:00,68.0,64.0,25.00,East,94,0.0,-999.0,86,-99.99,,,0.03,weatherlink.com 1.10,2013-05-24 01:50:00,
2013-05-23 22:05:00,68.0,64.0,25.00,WSW,245,0.0,-999.0,86,-99.99,,,0.03,weatherlink.com 1.10,2013-05-24 02:05:00,
2013-05-23 22:20:00,67.6,64.0,25.00,East,92,0.0,-999.0,88,-99.99,,,0.03,weatherlink.com 1.10,2013-05-24 02:20:00,
2013-05-23 22:35:00,66.6,64.0,25.00,East,82,0.0,-999.0,90,-99.99,,,0.04,weatherlink.com 1.10,2013-05-24 02:35:00,
2013-05-23 22:50:00,66.0,63.0,25.00,NE,51,0.0,-999.0,91,-99.99,,,0.04,weatherlink.com 1.10,2013-05-24 02:50:00,
2013-05-23 23:05:00,65.7,63.0,25.00,WSW,245,0.0,-999.0,92,-99.99,,,0.06,weatherlink.com 1.10,2013-05-24 03:05:00,
2013-05-23 23:20:00,65.5,64.0,25.00,SSE,164,0.0,-999.0,93,-99.99,,,0.07,weatherlink.com 1.10,2013-05-24 03:20:00,
2013-05-23 23:35:00,65.3,63.0,25.00,NNE,19,0.0,-999.0,93,-99.99,,,0.09,weatherlink.com 1.10,2013-05-24 03:35:00,
2013-05-23 23:50:00,65.2,63.0,25.00,SE,128,0.0,-999.0,93,-99.99,,,0.11,weatherlink.com 1.10,2013-05-24 03:50:00,